Find Starlink 5931

NORAD ID: 56785 Int'l Des: 2023-078 Owner: SPXS Country: US Constellation: starlink operational
LEOCIRCULAR

Live-Position

3D-Globus wird geladen...

Über Starlink 5931

Beschreibung wird geladen...

Nächste Überflüge

Passes for default location (London). Set your location on the main map for personalized predictions.

Höhenverlauf

Loading altitude history...

Zweizeiliger Elementsatz

1 56785U 23078U 26125.47929168 .00001099 00000-0 99893-4 0 9994
2 56785 69.9999 201.3928 0003590 267.5087 92.5661 14.98329519161874
Epoch: 5. Mai 2026 • Age: 19 hours

Aktueller Status

Höhe 587.6 km
Geschwindigkeit 7.57 km/s
Subsatellitenpunkt -46.43°S, 144.7°W
Startdatum 31. Mai 2023
Alter 2.9 years
Typ internet

Technische Details

Klassifizierung Payload
Masse 305.00 kg
Trockenmasse 290.00 kg
Gesamtmasse 305.00 kg
Länge 0.20 m
Durchmesser 2.80 m
Spannweite 9.00 m
Form Box + pan
Hersteller SPXS
Bus-Typ Starlink
Phasenstatus In Orbit
Besitzer/Staat SPXS/US

Most Searched